Kosmos-2591

operational
NORAD ID: 64627 Int'l Des: 2022-089 Owner: TSKHM Country: RU
LEOCIRCULARRETROGRADESSO

Kosmos-2591について

説明を読み込み中...

リアルタイム位置

3D地球を読み込み中...

次回通過

高度履歴

Altitude vs Time

uPlot chart will show altitude changes over time

軌道要素

1 64627U 22089C 25340.74357550 .00019018 00000-0 51588-3 0 9995
2 64627 97.2359 74.7973 0013684 40.8423 319.3845 15.37567003 25076
Epoch: Dec 6, 2025 • Age: 21 hours

現在のステータス

高度 456.9 km
速度 7.65 km/s
衛星直下点 67.41°N, 124.67°E
打ち上げ日 Aug 1, 2022
運用期間 3.3 years
タイプ other

技術仕様

分類 Payload
質量 100.00 kg
乾燥質量 100.00 kg
総質量 100.00 kg
長さ 1.00 m
直径 0.40 m
スパン 1.00 m
形状 Hex Cyl + Ant
製造者 TSKHM
バスタイプ Nivelir
フェーズステータス In Orbit
所有者/国 TSKHM/RU

大規模コンステレーション

Loading constellations...